Regional Weather Roundup
Issued by NWS Kansas City/Pleasant Hill, MO

Home | Current Version | Previous Version | Graphics & Text | Print | Product List | Glossary Off
Versions: 1 2 3 4 5 6 7 8 9 10 11 12 13 14 15 16 17 18 19 20 21 22 23 24 25 26 27 28 29 30 31 32 33 34 35 36 37 38 39 40 41 42 43 44 45 46 47 48 49 50

000
ASUS43 KEAX 152204
RWREAX

WEATHER ROUNDUP FOR EASTERN KANSAS AND NORTHWEST MISSOURI
NATIONAL WEATHER SERVICE KANSAS CITY/PLEASANT HILL MO
500 PM CDT TUE APR 15 2014

KSZ040-057-103>105-MOZ028-029-037-043-152300-
...KANSAS CITY METROPOLITAN AREA...

CITY           SKY/WX    TMP DP  RH WIND       PRES   REMARKS
K.C. INTL      MOSUNNY   53  25  33 SW12      30.07F
K.C. DOWNTOWN  SUNNY     56  26  31 S10       30.08F
LEES SUMMIT    SUNNY     52  25  35 VRB6      30.09F
OLATHE - IXD   SUNNY     53  25  33 S9G18     30.08F
OLATHE - OJC   SUNNY     52  25  35 S8        30.08F
LAWRENCE       SUNNY     57  26  30 S12       30.07F

$$

MOZ001>008-011>017-020>025-030>033-038>040-044>046-053-054-152300-
...NORTHERN AND CENTRAL MISSOURI...

CITY           SKY/WX    TMP DP  RH WIND       PRES   REMARKS
ST. JOSEPH     SUNNY     54  25  32 S14       30.06F
MOSBY          FAIR      52  23  32 SW7       30.10F
WHITEMAN AFB   SUNNY     51  21  31 SW10      30.13F
CLINTON        SUNNY     52  28  40 W5        30.14F
SEDALIA        SUNNY     51  26  37 SW9       30.14F
WARSAW         NOT AVBL
MARSHALL         N/A     52  28  40 SW6G16    30.16F
CHILLICOTHE      N/A     50  22  33 S8        30.12F
MOBERLY        SUNNY     50  19  29 W7        30.15F
KIRKSVILLE     SUNNY     49  14  24 SW8       30.12F

$$

MOZ041-047>049-056>058-063>065-088>090-097-152300-
...EASTERN AND SOUTHERN MISSOURI...

CITY           SKY/WX    TMP DP  RH WIND       PRES   REMARKS
ST. LOUIS INTL MOSUNNY   49  19  30 W10       30.18F
SPIRIT OF STL  SUNNY     48  17  29 NW8       30.17F
COLUMBIA       SUNNY     48  20  32 SW8       30.15F
JEFFERSON CITY SUNNY     49  19  30 W8        30.16F
MEXICO         SUNNY     46  25  42 SW5       30.15F
HANNIBAL       SUNNY     50  14  23 W6        30.14F
ROLLA          SUNNY     47  20  34 VRB7      30.14F
LEBANON        SUNNY     52  18  25 CALM      30.14F
OSAGE BEACH    SUNNY     50  18  27 CALM      30.16F
SPRINGFIELD    SUNNY     53  21  28 VRB5      30.14F
JOPLIN         SUNNY     56  25  30 CALM      30.13F
WEST PLAINS    SUNNY     52  22  30 VRB3      30.15F
MALDEN         SUNNY     52  19  28 CALM      30.19F

$$

IAZ060-094-KSZ022-034>040-054-083-096-NEZ052-066-093-152300-
...KANSAS...SOUTHEAST NEBRASKA AND IOWA...

CITY           SKY/WX    TMP DP  RH WIND       PRES   REMARKS
TOPEKA         SUNNY     58  23  26 S9        30.05F
MANHATTAN      MOSUNNY   62  22  21 S17       29.98F
EMPORIA        SUNNY     59  21  23 SW16G23   30.03F
CHANUTE        SUNNY     58  27  30 S10       30.10F
WICHITA        PTSUNNY   62  19  19 SW13G22   30.01F
OMAHA          PTSUNNY   52  23  32 S16       29.98F
LINCOLN        PTSUNNY   58  23  26 S20G26    29.93F
FALLS CITY     MOSUNNY   54  28  36 S14G23    30.02F
LAMONI         SUNNY     48  18  30 S8        30.07F
DES MOINES     MOSUNNY   45  18  34 S10       30.09F

$$




USA.gov is the U.S. government's official web portal to all federal, state and local government web resources and services.